Portsmouth Weather Center

Moon Phase Calendar



Online Cameras

 


      

Current Conditions in New Castle
4/21/2021 6:57:53 AM

43°F
Feels Like 41
Clouds
Humidity
70%
Pressure
29.83"
Wind
3.4 mph (E)
Dew Point
34°F
UV Index
0/10 (Low)
Visibility
6 mi

Hourly Forecast

Date & Time Wed, Apr 21
6:00 AM
Wed, Apr 21
7:00 AM
Wed, Apr 21
8:00 AM
Wed, Apr 21
9:00 AM
Wed, Apr 21
10:00 AM
Wed, Apr 21
11:00 AM
Wed, Apr 21
12:00 PM
Wed, Apr 21
1:00 PM
Wed, Apr 21
2:00 PM
Wed, Apr 21
3:00 PM
Wed, Apr 21
4:00 PM
Wed, Apr 21
5:00 PM
Wed, Apr 21
6:00 PM
Wed, Apr 21
7:00 PM
Wed, Apr 21
8:00 PM
Wed, Apr 21
9:00 PM
Wed, Apr 21
10:00 PM
Wed, Apr 21
11:00 PM
Thu, Apr 22
12:00 AM
Thu, Apr 22
1:00 AM
Thu, Apr 22
2:00 AM
Thu, Apr 22
3:00 AM
Thu, Apr 22
4:00 AM
Thu, Apr 22
5:00 AM
Thu, Apr 22
6:00 AM
Thu, Apr 22
7:00 AM
Thu, Apr 22
8:00 AM
Thu, Apr 22
9:00 AM
Thu, Apr 22
10:00 AM
Thu, Apr 22
11:00 AM
Thu, Apr 22
12:00 PM
Thu, Apr 22
1:00 PM
Thu, Apr 22
2:00 PM
Thu, Apr 22
3:00 PM
Thu, Apr 22
4:00 PM
Thu, Apr 22
5:00 PM
Thu, Apr 22
6:00 PM
Thu, Apr 22
7:00 PM
Thu, Apr 22
8:00 PM
Thu, Apr 22
9:00 PM
Thu, Apr 22
10:00 PM
Thu, Apr 22
11:00 PM
Fri, Apr 23
12:00 AM
Fri, Apr 23
1:00 AM
Fri, Apr 23
2:00 AM
Fri, Apr 23
3:00 AM
Fri, Apr 23
4:00 AM
Fri, Apr 23
5:00 AM
Condition
Clouds

Clouds

Clouds

Clouds

Clouds

Clouds

Rain

Rain

Rain

Rain

Clouds

Clouds

Rain

Rain

Rain

Clouds

Clouds

Clouds

Clouds

Clouds

Clouds

Clouds

Clouds

Clouds

Clouds

Clouds

Clouds

Clouds

Clouds

Clouds

Clouds

Clouds

Clouds

Clouds

Clouds

Clouds

Clouds

Clouds

Clouds

Clouds

Clouds

Clouds

Clouds

Clouds

Clouds

Clear

Clear

Clear
Temperature 43°F43°F44°F46°F50°F54°F59°F59°F57°F57°F60°F58°F57°F52°F44°F41°F40°F38°F36°F35°F35°F34°F34°F34°F33°F34°F36°F38°F40°F41°F41°F41°F42°F41°F41°F40°F40°F39°F38°F38°F37°F37°F37°F37°F37°F36°F36°F36°F
Feels Like 40°F39°F40°F42°F46°F52°F58°F58°F56°F56°F58°F57°F56°F52°F37°F33°F32°F29°F26°F25°F24°F24°F23°F23°F22°F23°F25°F28°F30°F31°F31°F31°F33°F31°F32°F31°F31°F30°F29°F29°F28°F27°F27°F27°F26°F26°F26°F26°F
Cloudiness 79%75%79%85%85%79%69%67%69%100%84%84%81%85%87%99%100%92%74%65%62%55%56%57%55%64%70%93%70%80%85%88%90%100%100%100%100%100%99%38%29%25%28%37%40%6%6%6%
Visibility 6 mi6 mi6 mi6 mi6 mi6 mi6 mi6 mi6 mi6 mi6 mi6 mi5 mi6 mi6 mi6 mi6 mi6 mi6 mi6 mi6 mi6 mi6 mi6 mi6 mi6 mi6 mi6 mi6 mi6 mi6 mi6 mi6 mi6 mi6 mi6 mi6 mi6 mi6 mi6 mi6 mi6 mi6 mi6 mi6 mi6 mi6 mi6 mi
Precipitation 9%5%4%2%1%0%20%33%31%44%32%32%56%88%95%46%46%42%38%34%34%0%5%5%5%5%1%0%0%0%0%0%0%6%0%0%0%0%0%0%0%0%0%0%0%0%0%0%
Humidity 73%70%73%73%70%68%67%69%73%72%66%68%77%93%89%86%84%82%81%79%77%75%73%70%68%65%62%54%43%41%40%44%41%48%50%53%53%54%55%57%61%64%65%65%66%66%67%70%
Dew Point 35°F34°F36°F38°F41°F44°F48°F49°F48°F48°F48°F48°F50°F50°F41°F38°F35°F33°F31°F29°F28°F27°F26°F25°F24°F24°F24°F23°F20°F19°F18°F20°F21°F23°F24°F25°F24°F24°F23°F24°F25°F26°F27°F26°F26°F26°F27°F27°F
Pressure 29.83"29.83"29.83"29.8"29.77"29.74"29.65"29.59"29.56"29.53"29.47"29.44"29.44"29.44"29.47"29.5"29.47"29.47"29.47"29.47"29.47"29.47"29.47"29.5"29.5"29.53"29.56"29.56"29.56"29.56"29.59"29.59"29.59"29.62"29.62"29.65"29.68"29.71"29.71"29.74"29.74"29.74"29.74"29.74"29.74"29.77"29.77"29.77"
Wind Speed 5.2 mph5.2 mph7.3 mph9.3 mph9.7 mph12.1 mph16.1 mph18.9 mph18.3 mph18.4 mph21.4 mph22.8 mph18.8 mph10.1 mph13.5 mph15.6 mph14.2 mph15.8 mph16.9 mph16.9 mph17.6 mph17 mph17.1 mph18.8 mph19.3 mph20.3 mph20.4 mph20.7 mph21.9 mph22.1 mph22.4 mph21.8 mph21.1 mph20.9 mph21.4 mph19.6 mph19.1 mph17.3 mph15.6 mph15.4 mph16.5 mph17.8 mph18 mph18.8 mph18.9 mph18.6 mph18.1 mph18.1 mph
Wind
Direction
101°
E
119°
ESE
166°
SSE
185°
S
186°
S
173°
S
171°
S
168°
SSE
173°
S
172°
S
167°
SSE
170°
S
204°
SSW
245°
WSW
283°
WNW
278°
W
278°
W
284°
WNW
288°
WNW
290°
WNW
294°
WNW
293°
WNW
292°
WNW
296°
WNW
290°
WNW
284°
WNW
283°
WNW
287°
WNW
290°
WNW
288°
WNW
288°
WNW
287°
WNW
285°
WNW
287°
WNW
291°
WNW
293°
WNW
291°
WNW
289°
WNW
279°
W
268°
W
259°
W
258°
WSW
258°
WSW
259°
W
261°
W
263°
W
263°
W
262°
W

Daily Forecast

Date High Low Precip. Humidity
Today
Apr 21

Rain
60 °F
38 °F
95%
67%
Thursday
Apr 22

Clouds
42 °F
33 °F
38%
40%
Friday
Apr 23

Clouds
54 °F
36 °F
0%
44%
Saturday
Apr 24

Clouds
61 °F
44 °F
0%
52%
Sunday
Apr 25

Rain
48 °F
47 °F
100%
95%
Monday
Apr 26

Rain
56 °F
47 °F
100%
61%
Tuesday
Apr 27

Clouds
58 °F
41 °F
0%
52%
Wednesday
Apr 28

Clear
56 °F
42 °F
0%
56%
Thursday
Apr 29

Clouds
53 °F
45 °F
0%
79%
Friday
Apr 30

Clouds
55 °F
50 °F
0%
82%
Saturday
May 1

Clouds
59 °F
52 °F
0%
78%
Sunday
May 2

Rain
54 °F
43 °F
39%
38%
Monday
May 3

Rain
51 °F
43 °F
22%
68%
Tuesday
May 4

Clouds
54 °F
45 °F
0%
60%
Wednesday
May 5

Clouds
49 °F
44 °F
0%
84%
Thursday
May 6

Rain
48 °F
45 °F
20%
94%

Temperature 8-14 Day Outlook



Precipitation 8-14 Day Outlook




Quick Links
Portsmouth News
Portsmouth Photos
Portsmouth Videos




About Us
Contact Us
Site Map
Search Site
Advertise With Us
   
Portsmouth.USCoast.info
THE PORTSMOUTH WEBSITE

Copyright 2021, Coastal Town
Privacy    |    Legal